Weather History for KMHV - September, 2014

Change the Weather History Date:

Monday, September 1, 2014

  Actual Average Record
Temperature  
Mean Temperature 83 °F -  
Max Temperature 98 °F 93 °F 102 °F (1969)
Min Temperature 68 °F 63 °F 32 °F (2003)
Cooling Degree Days 18    
Growing Degree Days 33 (Base 50)    
Moisture  
Dew Point 32 °F    
Average Humidity 16    
Maximum Humidity 22    
Minimum Humidity 8    
Precipitation  
Precipitation 0.00 in - - ()
Sea Level Pressure  
Sea Level Pressure 29.87 in    
Wind  
Wind Speed 12 mph (West)    
Max Wind Speed 24 mph    
Max Gust Speed 32 mph    
Visibility 10 miles    
Events      
Averages and records for this station are not official NWS values.
T = Trace of Precipitation, MM = Missing Value Source: NWS Daily Summary

Daily Weather History Graph

Daily Weather History Graph

Search for Another Location

Airport or City:

Trip Planner

Search our weather history database for the weather conditions in past years. The results will help you decide how hot, cold, wet, or windy it might be!

Date:

Astronomy

Sep. 01, 2014 Rise Set
Actual Time 6:25 AM PDT 7:19 PM PDT
Civil Twilight 5:59 AM PDT 7:44 PM PDT
Nautical Twilight 5:28 AM PDT 8:15 PM PDT
Astronomical Twilight 4:57 AM PDT 8:46 PM PDT
Moon 1:00 PM PDT (9/1) 11:40 PM PDT (9/1)
Length of Visible Light 13h 45m
Length of Day
12h 53m
Waxing Crescent, 43% of the Moon is Illuminated
Sep 1
Waxing Crescent
Sep 2
First Quarter
Sep 8
Full
Sep 15
Last Quarter
Sep 23
New

Hourly Weather History & Observations

Time (PDT) Temp. Dew Point Humidity Pressure Visibility Wind Dir Wind Speed Gust Speed Precip Events Conditions
12:15 AM 78.8 °F 24.8 °F 14% 29.85 in 10.0 mi WNW 21.9 mph 31.1 mph N/A   Clear
12:35 AM 78.8 °F 24.8 °F 14% 29.85 in 10.0 mi West 21.9 mph 27.6 mph N/A   Clear
12:55 AM 77.0 °F 26.6 °F 16% 29.85 in 10.0 mi West 21.9 mph 32.2 mph N/A   Clear
1:15 AM 77.0 °F 24.8 °F 14% 29.86 in 10.0 mi WNW 18.4 mph - N/A   Clear
1:35 AM 77.0 °F 24.8 °F 14% 29.86 in 10.0 mi NNW 15.0 mph - N/A   Clear
1:55 AM 77.0 °F 26.6 °F 16% 29.85 in 10.0 mi WNW 24.2 mph 28.8 mph N/A   Clear
2:15 AM 77.0 °F 26.6 °F 16% 29.85 in 10.0 mi WNW 19.6 mph - N/A   Clear
2:35 AM 77.0 °F 30.2 °F 18% 29.85 in 10.0 mi West 20.7 mph 28.8 mph N/A   Clear
2:55 AM 77.0 °F 32.0 °F 19% 29.85 in 10.0 mi West 18.4 mph 26.5 mph N/A   Clear
3:15 AM 77.0 °F 32.0 °F 19% 29.85 in 10.0 mi WNW 17.3 mph 20.7 mph N/A   Clear
3:35 AM 75.2 °F 32.0 °F 21% 29.85 in 10.0 mi WNW 17.3 mph 24.2 mph N/A   Clear
4:15 AM 75.2 °F 33.8 °F 22% 29.86 in 10.0 mi NW 11.5 mph 17.3 mph N/A   Clear
4:35 AM 75.2 °F 33.8 °F 22% 29.85 in 10.0 mi NW 4.6 mph - N/A   Clear
4:55 AM 73.4 °F 26.6 °F 18% 29.86 in 10.0 mi North 5.8 mph - N/A   Clear
5:15 AM 73.4 °F 24.8 °F 16% 29.87 in 10.0 mi Calm Calm - N/A   Clear
5:35 AM 73.4 °F 26.6 °F 18% 29.87 in 10.0 mi Calm Calm - N/A   Clear
5:55 AM 73.4 °F 28.4 °F 19% 29.86 in 10.0 mi Calm Calm - N/A   Clear
6:15 AM 68.0 °F 26.6 °F 21% 29.87 in 10.0 mi NNE 6.9 mph - N/A   Clear
6:35 AM 68.0 °F 26.6 °F 21% 29.88 in 10.0 mi North 4.6 mph - N/A   Clear
6:55 AM 68.0 °F 26.6 °F 21% 29.89 in 10.0 mi NNW 5.8 mph - N/A   Clear
7:15 AM 71.6 °F 26.6 °F 19% 29.90 in 10.0 mi NNW 8.1 mph - N/A   Clear
7:35 AM 75.2 °F 28.4 °F 18% 29.90 in 10.0 mi North 4.6 mph - N/A   Clear
7:55 AM 75.2 °F 30.2 °F 19% 29.91 in 10.0 mi ENE 5.8 mph - N/A   Clear
8:15 AM 75.2 °F 32.0 °F 21% 29.91 in 10.0 mi East 5.8 mph - N/A   Clear
8:35 AM 77.0 °F 32.0 °F 19% 29.91 in 10.0 mi East 3.5 mph - N/A   Clear
9:15 AM 80.6 °F 32.0 °F 17% 29.92 in 10.0 mi Calm Calm - N/A   Clear
9:35 AM 80.6 °F 32.0 °F 17% 29.92 in 10.0 mi ESE 3.5 mph - N/A   Clear
9:55 AM 82.4 °F 32.0 °F 16% 29.92 in 10.0 mi ESE 3.5 mph - N/A   Clear
10:35 AM 84.2 °F 32.0 °F 15% 29.92 in 10.0 mi Calm Calm - N/A   Clear
10:55 AM 86.0 °F 32.0 °F 14% 29.92 in 10.0 mi Calm Calm - N/A   Clear
11:15 AM 87.8 °F 32.0 °F 14% 29.92 in 10.0 mi Calm Calm - N/A   Clear
11:35 AM 89.6 °F 32.0 °F 13% 29.91 in 10.0 mi ENE 3.5 mph - N/A   Clear
12:15 PM 89.6 °F 30.2 °F 12% 29.90 in 10.0 mi Calm Calm - N/A   Clear
12:35 PM 91.4 °F 26.6 °F 10% 29.89 in 10.0 mi East 9.2 mph - N/A   Clear
1:15 PM 91.4 °F 28.4 °F 10% 29.88 in 10.0 mi East 8.1 mph - N/A   Clear
1:35 PM 93.2 °F 28.4 °F 10% 29.88 in 10.0 mi Calm Calm - N/A   Clear
1:55 PM 93.2 °F 28.4 °F 10% 29.87 in 10.0 mi East 6.9 mph - N/A   Clear
2:15 PM 93.2 °F 28.4 °F 10% 29.87 in 10.0 mi East 6.9 mph - N/A   Clear
2:35 PM 93.2 °F 28.4 °F 10% 29.86 in 10.0 mi South 5.8 mph - N/A   Clear
2:55 PM 95.0 °F 28.4 °F 9% 29.86 in 10.0 mi SW 4.6 mph - N/A   Clear
3:15 PM 95.0 °F 28.4 °F 9% 29.85 in 10.0 mi NE 3.5 mph - N/A   Clear
3:35 PM 95.0 °F 28.4 °F 9% 29.84 in 10.0 mi Calm Calm - N/A   Clear
3:55 PM 96.8 °F 28.4 °F 9% 29.84 in 10.0 mi West 4.6 mph - N/A   Clear
4:15 PM 95.0 °F 28.4 °F 9% 29.83 in 10.0 mi Calm Calm - N/A   Clear
4:35 PM 96.8 °F 28.4 °F 9% 29.83 in 10.0 mi SSE 10.4 mph 16.1 mph N/A   Clear
4:55 PM 98.6 °F 28.4 °F 8% 29.83 in 10.0 mi SSW 8.1 mph - N/A   Clear
5:15 PM 96.8 °F 37.4 °F 13% 29.83 in 10.0 mi SSW 12.7 mph 19.6 mph N/A   Clear
5:35 PM 95.0 °F 39.2 °F 14% 29.83 in 10.0 mi SSW 12.7 mph - N/A   Clear
5:55 PM 95.0 °F 42.8 °F 16% 29.83 in 10.0 mi SSW 15.0 mph 18.4 mph N/A   Clear
6:15 PM 93.2 °F 39.2 °F 15% 29.83 in 10.0 mi West 11.5 mph 20.7 mph N/A   Clear
6:35 PM 91.4 °F 39.2 °F 16% 29.83 in 10.0 mi West 13.8 mph - N/A   Clear
7:15 PM 86.0 °F 39.2 °F 19% 29.84 in 10.0 mi West 18.4 mph - N/A   Clear
7:35 PM 86.0 °F 39.2 °F 19% 29.84 in 10.0 mi West 16.1 mph 24.2 mph N/A   Clear
7:55 PM 84.2 °F 41.0 °F 22% 29.84 in 10.0 mi West 20.7 mph 25.3 mph N/A   Clear
8:15 PM 84.2 °F 41.0 °F 22% 29.85 in 10.0 mi West 12.7 mph - N/A   Unknown
8:35 PM 84.2 °F 39.2 °F 20% 29.86 in 10.0 mi West 16.1 mph - N/A   Clear
8:55 PM 84.2 °F 39.2 °F 20% 29.86 in 10.0 mi West 13.8 mph 18.4 mph N/A   Clear
9:15 PM 82.4 °F 39.2 °F 21% 29.87 in 10.0 mi SSW 12.7 mph - N/A   Clear
9:35 PM 82.4 °F 39.2 °F 21% 29.87 in 10.0 mi SSW 12.7 mph - N/A   Clear
9:55 PM 82.4 °F 37.4 °F 20% 29.87 in 10.0 mi SW 13.8 mph 18.4 mph N/A   Clear
10:15 PM 82.4 °F 37.4 °F 20% 29.87 in 10.0 mi WSW 12.7 mph - N/A   Clear
10:35 PM 82.4 °F 37.4 °F 20% 29.87 in 10.0 mi WSW 8.1 mph - N/A   Clear
10:55 PM 82.4 °F 35.6 °F 19% 29.87 in 10.0 mi SSW 11.5 mph - N/A   Clear
11:15 PM 80.6 °F 35.6 °F 20% 29.88 in 10.0 mi WSW 11.5 mph 18.4 mph N/A   Clear
11:35 PM 82.4 °F 32.0 °F 16% 29.88 in 10.0 mi West 11.5 mph 17.3 mph N/A   Clear
11:55 PM 80.6 °F 33.8 °F 18% 29.88 in 10.0 mi WSW 15.0 mph - N/A   Clear